Simultaneous Nadir Overpasses (SNOs) Predictions

Prediction of SNOs between GOES-14 and AQUA Satellite Orbit:

Table of predicted SNOs for the next 14.0 days since TLE Epoch: 2/15/2020
Index Date Time (GOES-14) GOES-14 Lat,Lon AQUA Lat,Lon Distance(km) Time Diff (sec)
1 02/16/2020 20:24:06 -0.04,-104.05 0.30,-102.49 177.62 80
2 02/17/2020 08:45:22 0.05,-104.25 0.79,-107.65 386.62 80
3 02/19/2020 08:33:12 0.05,-104.25 0.16,-104.69 50.82 80
4 02/21/2020 08:23:42 0.06,-104.25 -0.46,-101.74 285.16 80
5 02/21/2020 20:45:06 -0.06,-104.05 -0.66,-106.92 326.32 80
6 02/23/2020 20:30:16 -0.07,-104.05 -0.03,-103.97 10.08 80
7 02/25/2020 20:18:05 -0.07,-104.06 0.55,-101.01 346.31 80
8 02/26/2020 08:39:21 0.07,-104.25 0.49,-106.17 219.38 80
9 02/28/2020 08:29:52 0.07,-104.26 -0.14,-103.22 117.39 80
10 02/28/2020 20:51:14 -0.07,-104.08 -1.02,-108.40 491.83 80




NCC Satellite Simultaneous Nadir Overpasses (SNOs) Prediction Service
